This is the latest recevied weather packets stored in our database for station/object SV2RIM-2. If no packets are shown the sender has not sent any weather packets the latest 10 day(s).
| Time | Temp. | Humidity | Pressure | Rain* | Wind** | Luminosity | Snow |
|---|---|---|---|---|---|---|---|
| 1787877619 | 24.44° C | 62% | 1015.3 hPa | - | - | - | - |
| 1787877019 | 24.44° C | 60% | 1015.2 hPa | - | - | - | - |
| 1787876419 | 25° C | 59% | 1015.3 hPa | - | - | - | - |
| 1787875819 | 24.44° C | 58% | 1015.3 hPa | - | - | - | - |
| 1787875219 | 24.44° C | 59% | 1015.1 hPa | - | - | - | - |
| 1787874619 | 24.44° C | 58% | 1015.1 hPa | - | - | - | - |
| 1787874019 | 24.44° C | 56% | 1015.2 hPa | - | - | - | - |
| 1787873419 | 24.44° C | 56% | 1015.2 hPa | - | - | - | - |
| 1787872819 | 24.44° C | 56% | 1015.4 hPa | - | - | - | - |
| 1787872219 | 25° C | 54% | 1015.5 hPa | - | - | - | - |
| 1787871619 | 25.56° C | 52% | 1015.5 hPa | - | - | - | - |
| 1787871019 | 26.11° C | 50% | 1015.6 hPa | - | - | - | - |
| 1787870419 | 26.67° C | 49% | 1015.7 hPa | - | - | - | - |
| 1787869819 | 26.67° C | 49% | 1015.8 hPa | - | - | - | - |
| 1787869219 | 26.67° C | 48% | 1015.8 hPa | - | - | - | - |
| 1787868619 | 26.67° C | 48% | 1015.7 hPa | - | - | - | - |
| 1787868019 | 27.22° C | 47% | 1015.6 hPa | - | - | - | - |
| 1787867419 | 27.22° C | 47% | 1015.7 hPa | - | - | - | - |
| 1787866819 | 27.22° C | 47% | 1015.7 hPa | - | - | - | - |
| 1787866219 | 26.67° C | 48% | 1015.7 hPa | - | - | - | - |
| 1787865619 | 26.67° C | 48% | 1015.6 hPa | - | - | - | - |
| 1787865019 | 26.67° C | 48% | 1015.6 hPa | - | - | - | - |
| 1787864419 | 26.67° C | 48% | 1015.6 hPa | - | - | - | - |
| 1787863819 | 26.67° C | 48% | 1015.7 hPa | - | - | - | - |
| 1787863219 | 26.67° C | 48% | 1015.6 hPa | - | - | - | - |
* Rain since midnight (hover to see other rain measurements)
** Current wind speed in m/s (hover to see current wind gust speed)